This is the latest recevied weather packets stored in our database for station/object DG0LHZ-10. If no packets are shown the sender has not sent any weather packets the latest 10 day(s).
| Time | Temp. | Humidity | Pressure | Rain* | Wind** | Luminosity | Snow |
|---|---|---|---|---|---|---|---|
| 1787926384 | 22.78° C | 58% | 1011.4 hPa | - | - | - | - |
| 1787925477 | 22.78° C | 58% | 1011.2 hPa | - | - | - | - |
| 1787924577 | 22.78° C | 59% | 1011.5 hPa | - | - | - | - |
| 1787923678 | 22.78° C | 58% | 1012.4 hPa | - | - | - | - |
| 1787922777 | 23.33° C | 57% | 1013.6 hPa | - | - | - | - |
| 1787921877 | 23.33° C | 56% | 1013.3 hPa | - | - | - | - |
| 1787920977 | 23.89° C | 55% | 1013.6 hPa | - | - | - | - |
| 1787920084 | 23.89° C | 55% | 1013.8 hPa | - | - | - | - |
| 1787919178 | 24.44° C | 53% | 1013.9 hPa | - | - | - | - |
| 1787918277 | 24.44° C | 52% | 1014 hPa | - | - | - | - |
| 1787917377 | 23.89° C | 52% | 1013.3 hPa | - | - | - | - |
| 1787916477 | 23.33° C | 52% | 1012.1 hPa | - | - | - | - |
| 1787915578 | 23.33° C | 53% | 1011.7 hPa | - | - | - | - |
| 1787914676 | 23.33° C | 53% | 1011.1 hPa | - | - | - | - |
| 1787913776 | 22.78° C | 53% | 1011 hPa | - | - | - | - |
| 1787912876 | 22.78° C | 52% | 1010.7 hPa | - | - | - | - |
| 1787911976 | 22.78° C | 53% | 1010.6 hPa | - | - | - | - |
| 1787911076 | 22.78° C | 52% | 1010.7 hPa | - | - | - | - |
| 1787910176 | 22.22° C | 53% | 1010.9 hPa | - | - | - | - |
| 1787909278 | 21.67° C | 54% | 1011.8 hPa | - | - | - | - |
| 1787908377 | 21.11° C | 55% | 1012 hPa | - | - | - | - |
| 1787907476 | 21.11° C | 55% | 1011.9 hPa | - | - | - | - |
| 1787906576 | 20.56° C | 56% | 1011 hPa | - | - | - | - |
| 1787905676 | 20.56° C | 57% | 1010.9 hPa | - | - | - | - |
| 1787904776 | 20.56° C | 57% | 1010.7 hPa | - | - | - | - |
* Rain since midnight (hover to see other rain measurements)
** Current wind speed in m/s (hover to see current wind gust speed)